Weather History for TNCM - November, 2012

Change the Weather History Date:

Saturday, November 3, 2012

  Actual Average Record
Temperature  
Mean Temperature 82 °F -  
Max Temperature 87 °F 84 °F 87 °F (1996)
Min Temperature 77 °F 74 °F 73 °F (2000)
Cooling Degree Days 17    
Growing Degree Days 32 (Base 50)    
Moisture  
Dew Point 71 °F    
Average Humidity 66    
Maximum Humidity 83    
Minimum Humidity 51    
Precipitation  
Precipitation 0.08 in 0.16 in - ()
Sea Level Pressure  
Sea Level Pressure 29.95 in    
Wind  
Wind Speed 8 mph ()    
Max Wind Speed 14 mph    
Max Gust Speed -    
Visibility 6.3 miles    
Events Rain    
Averages and records for this station are not official NWS values.
T = Trace of Precipitation, MM = Missing Value Source: Averaged Metar Reports

Daily Weather History Graph

Daily Weather History Graph

Search for Another Location

Airport or City:

Trip Planner

Search our weather history database for the weather conditions in past years. The results will help you decide how hot, cold, wet, or windy it might be!

Date:

Astronomy

Nov. 03, 2012 Rise Set
Actual Time 6:12 AM AST 5:39 PM AST
Civil Twilight 5:50 AM AST 6:01 PM AST
Nautical Twilight 5:24 AM AST 6:27 PM AST
Astronomical Twilight 4:58 AM AST 6:53 PM AST
Moon 9:28 PM AST (11/3) 9:59 AM AST (11/3)
Length of Visible Light 12h 11m
Length of Day
11h 26m
Waning Gibbous, 80% of the Moon is Illuminated
Nov 3
Waning Gibbous
Nov 6
Last Quarter
Nov 13
New
Nov 20
First Quarter
Nov 28
Full

Hourly Weather History & Observations

Time (AST) Temp. Heat Index Dew Point Humidity Pressure Visibility Wind Dir Wind Speed Gust Speed Precip Events Conditions
12:00 AM 80.6 °F 84.6 °F 71.6 °F 74% 29.95 in 6.2 mi ENE 8.1 mph - N/A   Partly Cloudy
1:00 AM 81 °F - 70 °F 63% 29.94 in 25 mi East 9.2 mph - -   Scattered Clouds
1:00 AM 80.6 °F 83.9 °F 69.8 °F 70% 29.95 in 6.2 mi ENE 8.1 mph - N/A   Partly Cloudy
2:00 AM 80.6 °F 83.9 °F 69.8 °F 70% 29.92 in 6.2 mi East 9.2 mph - N/A   Partly Cloudy
3:00 AM 80.6 °F 84.6 °F 71.6 °F 74% 29.92 in 6.2 mi ENE 6.9 mph - N/A   Partly Cloudy
4:00 AM 80.6 °F 84.6 °F 71.6 °F 74% 29.92 in 6.2 mi East 8.1 mph - N/A   Scattered Clouds
5:00 AM 80 °F - 73 °F 73% 29.92 in 9 mi East 9.2 mph - - Rain Light Rain Showers
5:00 AM 78.8 °F - 73.4 °F 83% 29.92 in 6.2 mi East 9.2 mph - N/A   Scattered Clouds
6:00 AM 78.8 °F - 73.4 °F 83% 29.92 in 6.2 mi ESE 8.1 mph - N/A   Scattered Clouds
7:00 AM 80.6 °F 84.6 °F 71.6 °F 74% 29.92 in 6.2 mi East 12.7 mph - N/A   Scattered Clouds
8:00 AM 83 °F - 71 °F 60% 29.96 in 37 mi East 10.4 mph - -   Partly Cloudy
8:00 AM 82.4 °F 87.2 °F 71.6 °F 70% 29.95 in 6.2 mi East 10.4 mph - N/A   Partly Cloudy
9:00 AM 84.2 °F 89.6 °F 71.6 °F 66% 29.98 in 6.2 mi East 11.5 mph - N/A   Partly Cloudy
10:00 AM 86.0 °F 90.4 °F 69.8 °F 58% 29.98 in 6.2 mi East 10.4 mph - N/A   Partly Cloudy
11:00 AM 86 °F - 71 °F 52% 29.99 in 40 mi East 9.2 mph - -   Scattered Clouds
11:00 AM 86.0 °F 90.4 °F 69.8 °F 58% 29.98 in 6.2 mi East 9.2 mph - N/A   Partly Cloudy
12:00 PM 86.0 °F 90.4 °F 69.8 °F 58% 29.95 in 6.2 mi ENE 11.5 mph - N/A   Partly Cloudy
1:00 PM 86.0 °F 90.4 °F 69.8 °F 58% 29.95 in 6.2 mi East 13.8 mph - N/A   Partly Cloudy
2:00 PM 86 °F - 70 °F 51% 29.94 in 44 mi East 9.2 mph - -   Partly Cloudy
2:00 PM 86.0 °F 90.4 °F 69.8 °F 58% 29.92 in 6.2 mi East 9.2 mph - N/A   Scattered Clouds
3:00 PM 86.0 °F 91.8 °F 71.6 °F 62% 29.92 in 6.2 mi East 9.2 mph - N/A   Scattered Clouds
4:00 PM 84.2 °F 88.4 °F 69.8 °F 62% 29.92 in 6.2 mi East 9.2 mph - N/A   Scattered Clouds
5:00 PM 84 °F - 70 °F 54% 29.94 in 44 mi East 9.2 mph - -   Scattered Clouds
5:00 PM 84.2 °F 88.4 °F 69.8 °F 62% 29.92 in 6.2 mi East 9.2 mph - N/A   Partly Cloudy
6:00 PM 82.4 °F 86.3 °F 69.8 °F 66% 29.92 in 6.2 mi East 8.1 mph - N/A   Partly Cloudy
7:00 PM 80.6 °F 83.9 °F 69.8 °F 70% 29.95 in 6.2 mi East 5.8 mph - N/A   Partly Cloudy
8:00 PM 81 °F - 70 °F 62% 29.96 in 31 mi East 4.6 mph - -   Scattered Clouds
8:00 PM 80.6 °F 83.9 °F 69.8 °F 70% 29.95 in 6.2 mi East 4.6 mph - N/A   Partly Cloudy
9:00 PM 80.6 °F 84.6 °F 71.6 °F 74% 29.95 in 6.2 mi East 8.1 mph - N/A   Partly Cloudy
10:00 PM 80.6 °F 83.9 °F 69.8 °F 70% 29.98 in 6.2 mi East 5.8 mph - N/A   Scattered Clouds
11:00 PM 81 °F - 71 °F 63% 29.98 in 31 mi ESE 8.1 mph - -   Partly Cloudy
11:00 PM 80.6 °F 83.9 °F 69.8 °F 70% 29.98 in 6.2 mi ESE 8.1 mph - N/A   Scattered Clouds